This is the latest recevied weather packets stored in our database for station/object N3TJJ-2. If no packets are shown the sender has not sent any weather packets the latest 10 day(s).
| Time | Temp. | Humidity | Pressure | Rain* | Wind** | Luminosity | Snow |
|---|---|---|---|---|---|---|---|
| 1788112161 | 26.67° C | 76% | 1021.4 hPa | 0 mm | - | - | - |
| 1788111768 | 26.67° C | 75% | 1021.4 hPa | 0 mm | - | - | - |
| 1788111411 | 26.67° C | 76% | 1021.4 hPa | 0 mm | - | - | - |
| 1788111074 | 26.67° C | 76% | 1021.7 hPa | 0 mm | - | - | - |
| 1788110685 | 26.67° C | 76% | 1021.8 hPa | 0 mm | - | - | - |
| 1788110342 | 26.11° C | 76% | 1021.8 hPa | 0 mm | - | - | - |
| 1788109965 | 26.11° C | 76% | 1021.8 hPa | 0 mm | - | - | - |
| 1788109617 | 25.56° C | 75% | 1021.9 hPa | 0 mm | - | - | - |
| 1788109247 | 25° C | 75% | 1022.1 hPa | 0 mm | - | - | - |
| 1788108889 | 25° C | 75% | 1022 hPa | 0 mm | - | - | - |
| 1788108529 | 25.56° C | 75% | 1022.1 hPa | 0 mm | - | - | - |
| 1788108170 | 25° C | 75% | 1022.2 hPa | 0 mm | - | - | - |
| 1788107804 | 25° C | 75% | 1022.3 hPa | 0 mm | - | - | - |
| 1788107447 | 25° C | 74% | 1022.3 hPa | 0 mm | - | - | - |
| 1788107085 | 24.44° C | 74% | 1022.3 hPa | 0 mm | - | - | - |
| 1788106729 | 24.44° C | 73% | 1022.4 hPa | 0 mm | - | - | - |
| 1788106370 | 24.44° C | 73% | 1022.5 hPa | 0 mm | - | - | - |
| 1788106004 | 24.44° C | 71% | 1022.5 hPa | 0 mm | - | - | - |
| 1788105646 | 23.89° C | 70% | 1022.6 hPa | 0 mm | - | - | - |
| 1788105285 | 23.89° C | 71% | 1022.5 hPa | 0 mm | - | - | - |
| 1788104932 | 23.33° C | 68% | 1022.6 hPa | 0 mm | - | - | - |
| 1788104574 | 23.33° C | 69% | 1022.8 hPa | 0 mm | - | - | - |
| 1788104211 | 22.78° C | 66% | 1022.9 hPa | 0 mm | - | - | - |
| 1788103846 | 22.78° C | 63% | 1023 hPa | 0 mm | - | - | - |
| 1788103488 | 22.22° C | 63% | 1023 hPa | 0 mm | - | - | - |
* Rain latest hour (hover to see other rain measurements)
** Current wind speed in m/s (hover to see current wind gust speed)